Location: Kmicica-DOM
(53.1202°N, 23.2052°E)
Time: 02:53:28
(UTC+02:00)

USA 276 - Pass Details

Date: 17 August 2022
Orbit: 366 x 369 km, 50.0° (Epoch: 12 July)

Event Time Altitude Azimuth Distance (km) Brightness Sun altitude
Exits shadow 02:39:18 23° 129° (SE) 826 3.6 -18.0°
Drops below altitude 10° 02:41:03 10° 99° (E) 1,348 5.1 -17.8°
Sets 02:43:14 0° 87° (E) 2,197 6.4 -17.7°
